www.pogodaiklimat.ru

Погода и климат >> Архив погоды >> Россия >> Сахалинская область >> Остров Монерон


ПОГОДА на Остров Монерон

  • Прогноз погоды на Остров Монерон
  • Монитор погоды на Остров Монерон
  • Климат города

АРХИВ ПОГОДЫ на Остров Монерон

Время (UTC), дата Ветер
(напр.,м/с)
 
Видим.   Явления Облачность Т
(С)
Тd
(С)
f
(%)
Тe
(С)
Тes
(С)
Комфортность P
(гПа)
Po
(гПа)
Тmin
(С)
Tmax
(С)
R
(мм)
R24
(мм)
S
(см)
03 16.07 С 9 20 км 7 баллов +12.9 +10.1 83 +10 +10 1009.0 996.0
06 16.07 С 7 20 км 1 балл +13.2 +10.4 83 +11 +13 1010.3 997.3
09 16.07 С 6 20 км ясно +12.8 +9.1 78 +10 +11 1010.3 997.3 +13.4
12 16.07 С 8 20 км 5 баллов +12.4 +9.2 81 +9 +9 1011.7 998.7
15 16.07 С 9-12
{15}
20 км ясно +11.9 +9.8 87 +8 +8 1010.2 997.2
18 16.07 С 5 20 км 7 баллов +11.8 +9.5 86 +9 +9 1011.8 998.7
21 16.07 С 3-4
{7}
20 км 4/4 600 м
[Sc]
+12.9 +10.9 88 +11 +13 1012.1 999.1 +11.4
00 17.07 В 1 20 км 2 балла +14.8 +11.4 80 +15 +27 опасность
простуды
1012.9 1000.0
03 17.07 ЮВ 3 20 км 7 баллов +14.1 +12.0 87 +13 +18 1013.0 1000.0
06 17.07 С 3 20 км 6 баллов +14.6 +11.0 79 +14 +17 1012.9 1000.0
09 17.07 штиль 0 20 км 2 балла +13.4 +10.2 81 +13 +14 1013.0 1000.0 +15.6
12 17.07 ЮЗ 5 20 км 7 баллов +11.1 +10.3 95 +8 +8 1014.4 1001.3
15 17.07 Ю 2 20 км 2 балла +10.6 +9.8 95 +9 +9 1014.5 1001.3
18 17.07 СВ 1 20 км 9 баллов +10.6 +9.7 94 +10 +10 1014.5 1001.3
21 17.07 ЮВ 1-3
{3}
20 км 10/10 300 м
[St]
+11.4 +10.1 92 +11 +11 1013.6 1000.5 +10.1
00 18.07 ЮВ 2 20 км 9 баллов +13.9 +11.2 84 +13 +15 1014.3 1001.3
03 18.07 ЮВ 2 20 км 4 балла +14.4 +11.5 83 +14 +25 опасность
простуды
1014.3 1001.3
06 18.07 Ю 2 2000 м туман местами 9 баллов +12.8 +10.9 88 +12 +13 1013.0 1000.0
09 18.07 Ю 4 2000 м туман местами 9 баллов +11.1 +10.2 94 +9 +9 1013.1 1000.0 +15.4
12 18.07 ЮЗ 4 500 м туман н/о +10.5 +10.0 97 +8 1013.1 1000.0
15 18.07 ЮЗ 3 500 м туман ясно +10.1 +9.6 97 +8 +8 1013.2 1000.0
18 18.07 ЮЗ 5 200 м туман н/о +9.9 +9.6 98 +7 1011.8 998.7
21 18.07 ЮЗ 4-5
{6}
200 м туман ?/? +10.8 +10.4 97 +8 +8 1011.0 997.9 +9.9
00 19.07 ЮЗ 4 4000 м дымка 10 баллов +12.8 +12.3 97 +11 +11 1011.7 998.7
03 19.07 ЮЗ 6 20 км 10 баллов +15.1 +13.0 87 +13 +13 1010.2 997.3
06 19.07 Ю 7 4000 м дымка 10 баллов +14.4 +13.4 94 +12 +12 1008.9 996.0
09 19.07 Ю 7 4000 м дымка 10 баллов +14.2 +13.7 97 +12 +12 1008.9 996.0 +15.5
12 19.07 ЮЗ 8 200 м туман н/о +15.3 +14.8 97 +13 1007.5 994.7
15 19.07 ЮЗ 11 200 м туман н/о +15.2 +14.7 97 +13 1007.5 994.7
18 19.07 ЮЗ 12 200 м туман н/о +15.4 +14.9 97 +13 1006.1 993.3
21 19.07 ЮЗ 11-15
{16}
200 м туман {морось} ?/? +15.4 +15.0 97 +13 +13 1004.8 992.0 +14.2 1
00 20.07 ЮЗ 13 200 м туман н/о +15.7 +15.2 97 +13 1006.1 993.3
03 20.07 ЮЗ 12 200 м туман н/о +15.9 +15.4 97 +14 1004.8 992.0
06 20.07 ЮЗ 11 200 м туман н/о +16.0 +15.5 97 +14 1004.8 992.0
09 20.07 ЮЗ 10 200 м туман н/о +15.5 +15.2 98 +13 1004.8 992.0 +16.0
12 20.07 ЮЗ 8 500 м туман н/о +15.1 +14.8 98 +13 1004.8 992.0
15 20.07 ЮЗ 10 200 м туман н/о +14.8 +14.5 98 +12 1004.8 992.0
18 20.07 З 9 200 м ливневой дождь н/о +17.5 +17.2 98 +16 1003.4 990.7
21 20.07 ЮЗ 10-13
{18}
200 м ливневой дождь {туман} туман ?/? +14.8 +14.5 98 +12 +12 1003.2 990.5 +14.7 3
00 21.07 СЗ 5 2000 м туман местами 9 баллов +18.8 +17.5 92 +20 +20 1003.3 990.7
03 21.07 СВ 2 1000 м туман местами 9 баллов +18.1 +16.6 91 +19 +21 1004.7 992.0
06 21.07 ЮЗ 4 500 м туман 4 балла +16.5 +15.9 96 +16 +20 1003.4 990.7
09 21.07 С 1 200 м туман н/о +15.5 +14.9 96 +16 1004.8 992.0 +19.9 1
12 21.07 С 8 500 м туман н/о +13.5 +13.2 98 +11 1006.2 993.3
15 21.07 С 8 20 км 2 балла +12.9 +11.1 89 +10 +10 1006.2 993.3
18 21.07 С 8 20 км 6 баллов +12.7 +10.4 86 +10 +10 1007.7 994.7
21 21.07 С 9-13
{15}
20 км 8/3 300 м
[St Ci fib]
+12.9 +10.8 87 +10 +10 1006.9 994.0 +12.3
00 22.07 С 10 20 км 10 баллов +14.5 +11.6 83 +12 +12 1007.6 994.7
03 22.07 С 10 20 км 7 баллов +15.1 +11.5 79 +13 +13 1008.9 996.0
06 22.07 С 8 20 км 7 баллов +14.2 +11.4 83 +12 +12 1008.9 996.0
09 22.07 С 8 20 км 9 баллов +12.7 +11.1 90 +10 +10 1009.0 996.0 +15.2
12 22.07 С 10 20 км 9 баллов +12.3 +10.9 91 +9 +9 1009.0 996.0
15 22.07 С 7 20 км 7 баллов +12.2 +11.3 94 +9 +9 1010.3 997.3
18 22.07 С 3 20 км 6 баллов +11.6 +10.8 95 +10 +10 1009.0 996.0
21 22.07 С 2-3
{6}
20 км ясно +13.4 +11.9 91 +13 +15 1008.9 996.0 +11.5
00 23.07 СВ 2 20 км 7 баллов +15.1 +12.4 84 +15 +19 1008.9 996.0

 

Местоположение метеостанции Остров Монерон (Сахалинская область, Россия): широта 46.25 долгота 141.20 высота над уровнем моря 109 м.

В архиве по умолчанию представлена погода на Остров Монерон за последнюю неделю. Архивные данные за месяц целиком и за предыдущие месяцы, начиная с января 2011 года, Вы можете получить, выбрав интересующий диапазон дат из раскрывающегося списка и нажав кнопку "Ввод!".


*Определитесь, кто Вы:
робот инопланетянин человек

Внимание! Время в таблицах - всемирное. Для получения местного времени необходимо прибавить поправку, которая на Остров Монерон равна 11 ч.

Смотрите также архив погоды в соседних городах и на ближайших метеорологических станциях:

Погода в Невельске (Сахалинская область, Россия) (66 км)
Погода на Мысе Крильон (Сахалинская область, Россия) (73 км)
Погода в Wakkanai (Япония) (100 км)
Погода в Холмске (Сахалинская область, Россия) (108 км)
Погода в Огоньках (Сахалинская область, Россия) (109 км)
Погода в Корсакове (Сахалинская область, Россия) (123 км)
Погода в Южно-Сахалинске (Сахалинская область, Россия) (139 км)
Погода в Новиково (Сахалинская область, Россия) (162 км)
Погода в Долинске (Сахалинская область, Россия) (171 км)
Погода в Мальково (Сахалинская область, Россия) (171 км)

Пояснения к столбцам:

Ветер - указаны скорость ветра в м/с - средняя за 10 мин, порывы в срок и между сроками (в фигурных скобках) и направление, откуда дует ветер: С - северный, СВ - северо-восточный, В - восточный, ЮВ - юго-восточный, Ю - южный, ЮЗ - юго-западный, З - западный, СЗ - северо-западный.
Видимость - горизонтальная дальность видимости в метрах или километрах. При видимости от 1 до 10 км при отсутствии осадков обычно наблюдается дымка, при ухудшении видимости до 1 км и менее - туман. В сухую погоду видимость может ухудшаться дымом, пылью или мглою.
Явления - указаны атмосферные явления, наблюдавшиеся в срок или в последний час перед сроком; фигурными скобками обозначены явления, наблюдавшиеся между сроками (за 1-3 часа до срока); квадратными скобками обозначены град или гололедные отложения с указанием их диаметра в мм.
Облачность - указаны через наклонную черту общая и нижняя облачность в баллах и высота нижней границы облаков в метрах; квадратными скобками обозначены формы облаков: Ci - перистые, Cs - перисто-слоистые, Cc - перисто-кучевые, Ac - высококучевые, As - высокослоистые, Sc - слоисто-кучевые, Ns - слоисто-дождевые, Cu - кучевые, Cb - кучево-дождевые. Подробнее классификацию облаков см. в Атласе облаков (PDF).
T - Температура воздуха - температура, измеренная на высоте 2 м над землей.
Td - Температура точки росы - температура, при понижении до которой содержащийся в воздухе водяной пар достигнет насыщения.
f - Относительная влажность воздуха - влажноcть воздуха, измеренная на высоте 2 м над землей.
Te - Эффективная температура - температура, которую ощущает одетый по сезону человек в тени. Характеристика душности погоды. При расчете учитывается влияние влажности воздуха и скорости ветра на теплоощущения человека.
Tes - Эффективная температура на солнце - температура, которую ощущает человек, с поправкой на солнечный нагрев. Характеристика знойности погоды. Зависит от высоты солнца над горизонтом, облачности и скорости ветра. Ночью, в пасмурную погоду, а также при ветре 12 м/с и более поправка равна нулю.
P - Атмосферное давление - приведенное к уровню моря атмосферное давление.
Po - Атмосферное давление - измеренное на уровне метеостанции атмосферное давление.
Tmin - Минимальная температура - минимум температуры воздуха на высоте 2 м над землей.
Tmax - Максимальная температура - максимум температуры воздуха на высоте 2 м над землей.
R - Количество осадков - Количество выпавших осадков за период времени, мм. При наведении курсора мыши на число - период времени, за который выпало указанное количество осадков.
R24 - Количество осадков - Количество выпавших осадков за 24 часа, мм.
S - Снежный покров - Высота снежного покрова, см. При наведении курсора мыши на число - состояние снежного покрова и степень покрытия местности в баллах.